User: anonymous   Login
Location: Unspecified
(0.0000°N, 0.0000°E)
Time: 22:27:01
(UTC+00:00)
Language:

Kosmos-2230 - Orbit

View from above orbital plane
View from above orbital plane
View from above satellite
View from above satellite

Ground track
Ground track

The orbit data is extracted from the following two-line orbital elements,

1 22307U 93001A   18168.43020067  .00000042  00000-0  28486-4 0  9991
2 22307  82.9417 288.4884 0024952  20.5299  41.5799 13.73564695266253
Epoch (UTC): 17 June 2018 10:19:29
Eccentricity: 0.0024952
inclination: 82.9417°
perigee height: 968 km
apogee height: 1005 km
right ascension of ascending node: 288.4884°
argument of perigee: 20.5299°
revolutions per day: 13.73564695
mean anomaly at epoch: 41.5799°
orbit number at epoch: 26625

The dashed part of the orbit path shows where the satellite is in the earth's shadow,  

DLR